{"data":{"norad_id":62813,"intl_designator":"2025-018H","name":"STARLINK-32855","alt_names":[],"object_type":"PAYLOAD","status":"ACTIVE","operator":null,"country":"US","launch_date":"2025-01-24","launch_site_code":"AFWTR","launch_vehicle":null,"mission":null,"orbit_class":"UNKNOWN","rcs_meters":null,"size_class":null,"mass_kg":null,"dimensions":null,"purposes":["comms"],"wikipedia_slug":null,"has_3d_model":false,"image_url":null,"decayed_at":null,"tle_current":{"epoch":"2026-09-21T22:49:27.899904Z","epoch_age_seconds":42880,"freshness":"FRESH","line1":"1 62813U 25018H   26264.95101736  .00004067  00000+0  13149-3 0  9995","line2":"2 62813  53.1570 114.6667 0001096  99.9277 260.1850 15.34388749 93267","mean_motion":15.34388749,"eccentricity":0.0001096,"inclination_deg":53.157,"raan_deg":114.6667,"arg_perigee_deg":99.9277,"mean_anomaly_deg":260.185,"bstar":0.00013149,"rev_number":9326,"period_min":93.848446225801,"perigee_km":461.98692099907,"apogee_km":463.48644050989,"semimajor_km":6840.8736807545,"source":"CELESTRAK","updated_at":"2026-09-22T09:00:49.667772Z"}}}